ONEWEB-0253 (48971 NORAD) Tracking and Keplerian Element Data

This shows tracking and keplerian element data for the satellite.

Feedback or suggestion? Click here.




ElementValue
Catalog48971
NameONEWEB-0253
Epoch Orbit564
Epoch Day211.16667824
Epoch Year2021
RAAN227.4626
Inclination87.4224
Eccentricity0.0008637
Argument of Perigee144.9608
Mean Anonmoly206.7717
Mean Motion14.97780233
Decay Rate-0.01454315
L11 48971U 21060E 21211.16667824 -.01454315 00000-0 -13576+0 0 9991
L22 48971 87.4224 227.4626 0008637 144.9608 206.7717 14.97780233 5642

Live tracking and technical data element details for ONEWEB-0253 (NORAD 48971). ONEWEB-0253 can be tracked NOW for your location showing map with azimuth and elevation plus other details from your city location.

Track the satellite on the map from your city or location and see movement details for azimuth, elevation, latitude, longitude, range, height, and movement on the map or in text.







IsCatalogInMostPopularTable: catalog: 48971, numindb: 4
Update: records affected: 1



GetName: 48971 ONEWEB-0253

Hit Count: updated at: Sat, 31 Jul 2021 15:54:51 GMT